SCP
0 0 0 0 0 0 0 0 0 0 0 0 0 0 0 1 1 1 1 1 1 1 0 0 0 0 0 0 0 0 0 0
0 0 0 0 0 0 0 0 0 0 0 0 0 0 0 0 0 0 1 1 1 1 1 1 0 0 0 0 0 0 0 0
0 0 0 0 0 0 0 0 0 0 0 0 0 1 1 1 1 1 1 1 1 1 1 1 1 0 0 0 0 0 0 0
0 0 0 0 0 0 0 0 0 0 0 0 0 1 1 1 1 1 1 1 1 1 1 1 1 1 1 0 1 0 0 0
0 0 0 0 0 0 0 0 0 0 0 0 0 0 0 0 1 2 2 1 1 1 1 1 1 2 1 1 1 1 1 0
0 0 0 0 -0 -0 -0 -0 0 0 0 0 0 0 0 0 0 0 1 1 2 1 1 0 1 2 3 2 2 2 1 1
0 0 -0 -0 -0 -0 -0 -0 -0 0 0 0 0 0 0 0 0 0 0 0 0 1 2 1 1 1 1 1 1 2 2 2
-0 -0 -0 -0 -0 -0 -0 -0 -0 -0 0 0 0 0 0 0 0 0 0 0 0 0 0 0 1 1 1 1 1 1 2 2
-0 -0 -0 -0 -0 -0 -0 -0 -0 -0 0 0 0 0 0 0 0 0 0 0 0 0 0 0 0 1 1 1 1 1 1 1
0 0 0 -0 -0 -0 -0 0 0 0 0 0 0 0 0 0 0 0 0 0 0 0 0 0 0 0 0 1 1 1 1 1
-0 0 0 0 0 0 0 0 0 0 0 0 0 0 0 0 0 0 0 0 0 0 0 0 0 0 0 0 0 1 1 0
0 0 0 0 0 0 0 0 0 0 0 0 0 0 0 0 0 0 0 0 0 0 0 0 0 0 -0 -0 -0 0 0 1
0 0 0 0 0 0 0 0 0 0 0 0 0 0 0 0 0 0 0 0 0 0 0 0 0 0 0 -0 -0 -0 0 0
0 0 0 0 0 0 0 0 0 0 0 0 0 0 0 0 0 0 0 0 0 0 0 0 0 0 0 0 -0 -0 0 1
0 0 0 0 0 0 0 0 0 0 0 0 0 0 0 0 0 0 0 0 0 0 0 0 0 0 0 0 -0 -0 0 1
0 0 0 0 0 0 0 0 0 0 0 0 0 0 0 0 0 0 0 0 0 0 0 0 0 0 0 0 0 0 -0 0
0 0 0 0 0 0 0 0 0 0 0 0 0 0 0 0 0 0 0 0 0 0 0 0 0 0 0 0 0 0 0 0
0 0 0 0 0 0 0 0 0 0 0 0 0 0 0 0 0 0 0 0 0 0 0 0 0 0 0 0 0 0 0 0
0 0 0 0 0 0 0 0 0 0 0 0 0 0 0 0 0 0 0 0 0 0 0 0 0 0 0 0 0 0 0 0
0 0 0 0 0 0 0 0 0 0 0 0 0 0 0 0 0 0 0 0 0 0 0 0 0 0 0 0 0 0 0 0
Wind_Speed_500mb
22 16 12 12 18 22 25 28 31 33 35 36 37 39 42 41 42 42 42 39 39 42 45 47 45 43 42 41 42 43 45 38
55 45 36 31 28 25 25 27 30 33 37 41 45 48 47 49 49 50 51 51 54 54 51 49 53 52 52 51 49 50 55 50
60 56 57 52 50 45 38 31 27 25 31 36 41 37 41 43 46 57 59 57 57 62 66 60 55 58 58 59 57 59 49 51
56 61 54 47 44 43 42 42 41 40 40 40 34 33 40 46 52 60 67 67 71 64 67 62 56 60 65 65 65 66 54 56
54 61 61 57 49 46 45 41 43 40 39 38 37 36 35 33 35 42 44 51 60 58 59 80 63 64 55 56 69 71 73 65
51 53 57 59 51 50 49 49 51 51 53 51 46 43 43 43 41 41 42 42 42 51 55 56 60 67 64 61 58 70 69 75
47 51 58 59 58 58 56 55 54 54 54 58 60 59 54 54 54 48 50 45 46 48 50 69 65 62 66 67 77 77 79 84
40 42 52 53 50 53 45 48 46 41 45 49 53 57 55 53 55 52 46 55 60 59 55 51 66 81 76 78 72 70 71 77
38 37 43 47 46 41 39 45 45 44 46 51 55 59 58 59 47 47 49 60 65 62 70 67 63 55 73 79 75 75 73 76
35 36 41 47 49 42 39 44 43 45 47 43 57 58 56 60 58 47 50 53 51 52 55 59 76 77 58 57 70 72 79 89
38 40 45 46 43 42 39 42 42 45 45 42 54 55 58 60 59 59 62 51 49 50 53 55 64 75 82 72 66 75 77 81
39 40 44 45 41 41 40 43 45 47 45 46 50 51 60 63 65 62 60 58 54 53 58 55 63 64 79 92 92 87 71 84
40 43 47 47 45 46 46 49 48 46 42 49 49 51 54 59 60 65 62 62 59 59 61 65 68 65 70 75 89 101 93 93
46 43 47 47 49 48 51 49 46 43 45 50 50 50 50 53 58 62 61 62 61 56 60 69 63 54 54 67 70 70 74 85
44 42 43 49 61 53 53 46 44 53 56 54 54 54 53 51 53 56 56 54 59 60 57 57 69 65 46 34 22 35 42 56
40 39 54 55 52 54 51 45 46 45 46 47 50 51 54 54 53 52 53 53 61 60 58 58 55 61 60 43 41 51 27 45
43 44 45 50 48 50 48 48 45 42 46 48 49 49 52 57 59 57 56 56 56 58 55 53 48 46 41 50 55 49 52 64
39 42 44 49 47 49 52 48 45 45 51 49 50 48 53 55 58 57 54 54 55 53 48 46 45 38 33 33 33 27 40 27
39 41 45 51 52 49 49 46 44 45 49 50 50 51 54 58 57 60 61 55 51 49 46 44 43 41 36 32 24 29 33 32
52 50 43 43 43 43 44 46 45 44 46 49 50 53 54 53 54 57 59 59 54 51 49 48 45 44 41 36 28 21 24 19
Wind_Direction_500mb
40 25 355 311 279 282 280 277 277 279 280 280 279 278 276 277 276 275 274 273 271 274 279 279 275 270 265 260 253 250 247 243
50 48 41 29 11 350 324 309 300 292 286 283 279 278 278 276 273 273 273 283 282 278 270 268 273 274 271 266 262 257 251 248
53 49 50 49 46 40 38 26 7 342 316 301 295 295 283 278 279 279 276 274 274 281 278 269 266 268 268 268 266 262 255 254
42 46 43 35 33 30 26 24 21 17 10 1 348 317 299 280 279 274 273 267 269 265 269 265 257 258 266 267 261 262 253 251
36 32 30 28 23 20 16 11 7 0 351 348 348 346 331 325 299 279 275 278 278 274 272 266 271 259 255 248 264 261 259 252
33 30 27 21 20 16 12 7 0 356 349 339 330 321 319 322 324 305 287 276 276 276 269 265 257 252 250 247 247 252 252 255
30 25 24 19 15 14 11 8 1 356 351 345 341 338 327 316 308 312 311 292 272 268 273 272 266 260 255 256 257 250 249 254
21 18 16 16 12 9 9 2 1 357 354 345 336 332 330 326 321 315 312 292 282 274 273 266 269 266 261 260 254 250 248 250
13 12 8 7 8 5 0 357 357 354 351 347 339 336 330 324 323 322 317 309 307 301 284 277 266 274 265 255 251 251 250 249
3 2 357 360 359 359 353 352 354 349 348 346 334 335 330 327 325 323 318 319 314 309 305 299 278 270 270 268 259 254 257 253
2 2 358 356 354 354 351 350 347 346 344 341 333 333 329 326 323 316 312 317 314 312 307 304 299 278 271 266 258 260 257 257
1 359 355 353 355 353 351 347 346 344 343 338 338 335 330 331 326 321 311 311 313 315 312 304 299 298 285 273 268 259 260 254
0 357 359 360 360 354 351 347 345 339 338 339 339 336 333 331 327 324 325 320 317 317 315 307 304 303 300 293 280 266 266 261
2 358 360 1 0 354 350 345 344 336 338 344 345 342 338 337 334 333 332 324 323 320 316 313 304 304 299 297 293 282 267 264
0 7 6 359 355 350 349 347 344 343 346 346 348 346 345 343 340 337 334 329 324 320 319 313 311 306 301 281 305 281 286 258
10 3 354 354 359 357 357 353 351 350 347 344 346 351 352 351 349 345 340 335 334 334 328 320 312 306 298 288 259 264 288 285
4 3 3 0 359 359 2 1 355 352 349 350 351 353 355 355 354 350 346 341 336 339 336 335 327 315 309 297 291 281 266 259
8 8 3 4 4 1 5 6 358 355 356 356 356 355 358 357 357 354 350 348 346 345 344 344 341 331 325 313 295 297 281 292
8 6 5 4 3 6 5 6 359 359 360 359 0 360 1 0 359 355 357 355 354 353 351 353 352 348 345 340 310 282 284 285
358 0 6 6 8 9 8 8 3 1 359 4 7 4 0 358 359 360 358 0 2 2 0 359 3 5 7 9 356 316 292 293
Wind_Speed_850mb
22 16 12 12 18 22 25 28 31 33 35 36 37 39 42 41 42 42 42 39 39 42 45 47 45 43 42 41 42 43 45 38
55 45 36 31 28 25 25 27 30 33 37 41 45 48 47 49 49 50 51 51 54 54 51 49 53 52 52 51 49 50 55 50
60 56 57 52 50 45 38 31 27 25 31 36 41 37 41 43 46 57 59 57 57 62 66 60 55 58 58 59 57 59 49 51
56 61 54 47 44 43 42 42 41 40 40 40 34 33 40 46 52 60 67 67 71 64 67 62 56 60 65 65 65 66 54 56
54 61 61 57 49 46 45 41 43 40 39 38 37 36 35 33 35 42 44 51 60 58 59 80 63 64 55 56 69 71 73 65
51 53 57 59 51 50 49 49 51 51 53 51 46 43 43 43 41 41 42 42 42 51 55 56 60 67 64 61 58 70 69 75
47 51 58 59 58 58 56 55 54 54 54 58 60 59 54 54 54 48 50 45 46 48 50 69 65 62 66 67 77 77 79 84
40 42 52 53 50 53 45 48 46 41 45 49 53 57 55 53 55 52 46 55 60 59 55 51 66 81 76 78 72 70 71 77
38 37 43 47 46 41 39 45 45 44 46 51 55 59 58 59 47 47 49 60 65 62 70 67 63 55 73 79 75 75 73 76
35 36 41 47 49 42 39 44 43 45 47 43 57 58 56 60 58 47 50 53 51 52 55 59 76 77 58 57 70 72 79 89
38 40 45 46 43 42 39 42 42 45 45 42 54 55 58 60 59 59 62 51 49 50 53 55 64 75 82 72 66 75 77 81
39 40 44 45 41 41 40 43 45 47 45 46 50 51 60 63 65 62 60 58 54 53 58 55 63 64 79 92 92 87 71 84
40 43 47 47 45 46 46 49 48 46 42 49 49 51 54 59 60 65 62 62 59 59 61 65 68 65 70 75 89 101 93 93
46 43 47 47 49 48 51 49 46 43 45 50 50 50 50 53 58 62 61 62 61 56 60 69 63 54 54 67 70 70 74 85
44 42 43 49 61 53 53 46 44 53 56 54 54 54 53 51 53 56 56 54 59 60 57 57 69 65 46 34 22 35 42 56
40 39 54 55 52 54 51 45 46 45 46 47 50 51 54 54 53 52 53 53 61 60 58 58 55 61 60 43 41 51 27 45
43 44 45 50 48 50 48 48 45 42 46 48 49 49 52 57 59 57 56 56 56 58 55 53 48 46 41 50 55 49 52 64
39 42 44 49 47 49 52 48 45 45 51 49 50 48 53 55 58 57 54 54 55 53 48 46 45 38 33 33 33 27 40 27
39 41 45 51 52 49 49 46 44 45 49 50 50 51 54 58 57 60 61 55 51 49 46 44 43 41 36 32 24 29 33 32
52 50 43 43 43 43 44 46 45 44 46 49 50 53 54 53 54 57 59 59 54 51 49 48 45 44 41 36 28 21 24 19
Wind_Direction_850mb
40 25 355 311 279 282 280 277 277 279 280 280 279 278 276 277 276 275 274 273 271 274 279 279 275 270 265 260 253 250 247 243
50 48 41 29 11 350 324 309 300 292 286 283 279 278 278 276 273 273 273 283 282 278 270 268 273 274 271 266 262 257 251 248
53 49 50 49 46 40 38 26 7 342 316 301 295 295 283 278 279 279 276 274 274 281 278 269 266 268 268 268 266 262 255 254
42 46 43 35 33 30 26 24 21 17 10 1 348 317 299 280 279 274 273 267 269 265 269 265 257 258 266 267 261 262 253 251
36 32 30 28 23 20 16 11 7 0 351 348 348 346 331 325 299 279 275 278 278 274 272 266 271 259 255 248 264 261 259 252
33 30 27 21 20 16 12 7 0 356 349 339 330 321 319 322 324 305 287 276 276 276 269 265 257 252 250 247 247 252 252 255
30 25 24 19 15 14 11 8 1 356 351 345 341 338 327 316 308 312 311 292 272 268 273 272 266 260 255 256 257 250 249 254
21 18 16 16 12 9 9 2 1 357 354 345 336 332 330 326 321 315 312 292 282 274 273 266 269 266 261 260 254 250 248 250
13 12 8 7 8 5 0 357 357 354 351 347 339 336 330 324 323 322 317 309 307 301 284 277 266 274 265 255 251 251 250 249
3 2 357 360 359 359 353 352 354 349 348 346 334 335 330 327 325 323 318 319 314 309 305 299 278 270 270 268 259 254 257 253
2 2 358 356 354 354 351 350 347 346 344 341 333 333 329 326 323 316 312 317 314 312 307 304 299 278 271 266 258 260 257 257
1 359 355 353 355 353 351 347 346 344 343 338 338 335 330 331 326 321 311 311 313 315 312 304 299 298 285 273 268 259 260 254
0 357 359 360 360 354 351 347 345 339 338 339 339 336 333 331 327 324 325 320 317 317 315 307 304 303 300 293 280 266 266 261
2 358 360 1 0 354 350 345 344 336 338 344 345 342 338 337 334 333 332 324 323 320 316 313 304 304 299 297 293 282 267 264
0 7 6 359 355 350 349 347 344 343 346 346 348 346 345 343 340 337 334 329 324 320 319 313 311 306 301 281 305 281 286 258
10 3 354 354 359 357 357 353 351 350 347 344 346 351 352 351 349 345 340 335 334 334 328 320 312 306 298 288 259 264 288 285
4 3 3 0 359 359 2 1 355 352 349 350 351 353 355 355 354 350 346 341 336 339 336 335 327 315 309 297 291 281 266 259
8 8 3 4 4 1 5 6 358 355 356 356 356 355 358 357 357 354 350 348 346 345 344 344 341 331 325 313 295 297 281 292
8 6 5 4 3 6 5 6 359 359 360 359 0 360 1 0 359 355 357 355 354 353 351 353 352 348 345 340 310 282 284 285
358 0 6 6 8 9 8 8 3 1 359 4 7 4 0 358 359 360 358 0 2 2 0 359 3 5 7 9 356 316 292 293